SCP
0 0 0 0 0 0 0 0 0 0 0 0 0 0 0 0 0 0 0 0 0 0 0 0 0 0 0 0 0 0 0 0 0 0 0 0 0 0 0 0 0 0 -0
0 0 0 0 0 0 0 0 0 0 0 0 0 0 0 0 0 0 0 0 0 0 0 0 0 0 0 0 0 0 0 0 0 0 0 0 0 0 0 0 0 0 0
0 0 0 0 0 0 0 0 0 0 0 0 0 0 0 0 0 0 0 0 0 0 0 0 0 0 0 0 0 0 0 0 0 0 0 0 0 0 0 0 0 0 0
0 0 0 0 0 0 0 0 0 0 0 0 0 0 0 0 0 0 0 0 0 0 0 0 0 0 0 0 0 0 0 0 0 0 0 0 0 0 0 0 0 0 0
0 0 0 0 0 0 0 0 0 0 0 0 0 0 0 0 0 0 0 0 0 0 0 0 0 0 0 0 0 0 0 0 0 0 0 0 0 0 0 0 0 0 0
0 0 0 0 0 0 0 0 0 0 0 0 0 0 0 0 0 0 0 0 0 0 0 0 0 0 0 0 0 0 0 0 0 0 0 0 0 0 0 0 0 0 0
0 0 0 0 0 0 0 0 0 0 0 0 0 0 0 0 0 0 0 0 0 0 0 0 0 0 0 0 0 0 0 0 0 0 0 0 0 0 0 0 0 0 0
0 0 0 0 0 0 0 0 0 0 0 0 0 0 0 0 0 0 0 0 0 0 0 0 0 0 0 0 0 0 0 0 0 0 0 0 0 0 0 0 0 0 0
0 0 0 0 0 0 0 0 0 0 0 0 0 0 0 0 0 0 0 0 0 0 0 0 0 0 0 0 0 0 0 0 0 0 0 0 0 0 0 0 0 0 0
0 0 0 0 0 0 0 0 0 0 0 0 0 0 0 0 0 0 0 0 0 0 0 0 0 0 0 0 0 0 0 0 0 0 0 0 0 0 0 0 0 0 0
0 0 0 0 0 0 0 0 0 0 0 0 0 0 0 0 0 0 0 0 0 0 0 0 0 0 0 0 0 0 0 0 0 0 0 0 0 0 0 0 0 0 0
0 0 0 0 0 0 0 0 0 0 0 0 0 0 0 0 0 0 0 0 0 0 0 0 0 0 0 0 0 0 0 0 0 0 0 0 0 0 0 0 0 0 0
0 0 0 0 0 0 0 0 0 0 0 0 0 0 0 0 0 0 0 0 0 0 0 0 0 0 0 0 0 0 0 0 0 0 0 0 0 0 0 0 0 0 0
0 0 0 0 0 0 0 0 0 0 0 0 0 0 0 0 0 0 0 0 0 0 0 0 0 0 0 0 0 0 0 0 0 0 0 0 0 0 0 0 0 0 0
0 0 0 0 0 0 0 0 0 0 0 0 0 0 0 0 0 0 0 0 0 0 0 0 0 0 0 0 0 0 0 0 0 0 0 0 0 0 0 0 0 0 0
0 0 0 0 0 0 0 0 0 0 0 0 0 0 0 0 0 0 0 0 0 0 0 0 0 0 0 0 0 0 0 0 0 0 0 0 0 0 0 0 0 0 0
0 0 0 0 0 0 0 0 0 0 0 0 0 0 0 0 0 0 0 0 0 0 0 0 0 0 0 0 0 0 0 0 0 0 0 0 0 0 0 0 0 0 0
0 0 0 0 0 0 0 0 0 0 0 0 0 0 0 0 0 0 0 0 0 0 0 0 0 0 0 0 0 0 0 0 0 0 0 0 0 0 0 0 0 0 0
0 0 0 0 0 0 0 0 0 0 0 0 0 0 0 0 0 0 0 0 0 0 0 0 0 0 0 0 0 0 0 0 0 0 0 0 0 0 0 0 0 0 0
0 0 0 0 0 0 0 0 0 0 0 0 0 0 0 0 0 0 0 0 0 0 0 0 0 0 0 0 0 0 0 0 0 0 0 0 0 0 0 0 0 0 0
0 0 0 0 0 0 0 0 0 0 0 0 0 0 0 0 0 0 0 0 0 0 0 0 0 0 0 0 0 0 0 0 0 0 0 0 0 0 0 0 0 0 0
0 0 0 0 0 0 0 0 0 0 0 0 0 0 0 0 0 0 0 0 0 0 0 0 0 0 0 0 0 0 0 0 0 0 0 0 0 0 0 0 0 0 0
0 0 0 0 0 0 0 0 0 0 0 0 0 0 0 0 0 0 0 0 0 0 0 0 0 0 0 0 0 0 0 0 0 0 0 0 0 0 0 0 0 0 0
0 0 0 0 0 0 0 0 0 0 0 0 0 0 0 0 0 0 0 0 0 0 0 0 0 0 0 0 0 0 0 0 0 0 0 0 0 0 0 0 0 0 0
0 0 0 0 0 0 0 0 0 0 0 0 0 0 0 0 0 0 0 0 0 0 0 0 0 0 0 0 0 0 0 0 0 0 0 0 0 0 0 0 0 0 0
0 0 0 0 0 0 0 0 0 0 0 0 0 0 0 0 0 0 0 0 0 0 0 0 0 0 0 0 0 0 0 0 0 0 0 0 0 0 0 0 0 0 0
Wind_Speed_500mb
14 16 16 16 18 18 21 23 24 26 27 25 24 25 24 23 25 24 28 31 30 27 24 25 24 22 24 25 26 30 32 32 33 34 39 43 34 32 33 32 28 25 17
18 20 20 20 20 22 21 21 22 23 24 23 24 28 29 29 30 30 29 32 35 35 35 33 34 35 32 29 30 30 32 32 33 32 39 44 40 38 37 34 29 25 20
18 18 19 21 23 24 25 26 27 27 27 29 29 28 27 28 30 32 39 41 41 36 38 40 38 40 34 35 36 37 35 35 37 37 41 48 48 44 41 38 33 29 25
15 17 19 19 20 22 23 26 27 29 31 33 34 34 36 36 34 33 32 34 43 46 46 49 49 50 51 48 44 45 42 43 41 42 46 52 52 49 48 44 39 33 33
12 14 15 17 19 21 20 21 23 24 25 28 32 34 36 40 40 40 39 36 37 37 44 49 49 45 40 45 47 49 47 46 46 46 49 52 56 55 53 52 47 40 40
11 14 16 17 17 19 19 20 22 22 24 29 31 32 32 34 37 40 43 40 39 37 38 40 41 39 36 36 41 48 48 47 52 50 52 54 57 60 61 60 56 49 47
8 9 12 14 16 19 21 22 21 22 23 29 33 31 25 24 21 25 29 34 38 40 38 34 35 37 36 31 33 37 44 47 44 48 53 55 56 58 63 64 67 61 47
10 12 13 15 15 17 19 22 22 21 21 22 24 28 14 11 15 6 7 10 14 16 18 21 20 24 24 26 31 32 35 42 48 52 44 46 52 54 61 60 79 64 63
11 11 11 12 13 14 16 19 21 24 23 17 17 13 9 7 26 19 16 10 4 9 15 14 9 11 18 25 27 28 35 35 38 48 50 52 49 49 49 66 54 64 67
11 12 14 15 15 15 15 17 19 20 22 25 19 21 24 28 11 21 17 21 22 22 23 27 28 28 33 35 35 31 28 29 33 38 45 46 49 51 49 54 62 65 95
15 15 16 16 17 18 18 20 22 24 27 29 28 29 28 35 39 36 45 38 34 33 35 38 40 39 35 33 33 33 36 37 37 40 41 43 47 46 48 53 53 61 69
17 19 19 20 19 19 20 22 25 30 32 32 33 31 29 29 26 30 40 46 42 40 34 35 37 36 35 34 33 35 35 39 41 41 42 43 49 50 49 55 58 63 65
13 17 19 19 20 20 22 26 31 34 36 38 38 32 29 31 35 40 41 47 51 48 50 43 38 36 23 22 27 32 34 38 38 39 39 42 43 49 54 54 59 62 64
16 19 21 23 23 23 25 30 33 35 36 39 42 33 31 31 28 26 33 41 47 49 50 36 35 26 24 27 24 24 28 35 38 41 42 47 48 48 52 51 51 56 57
22 26 28 25 25 26 29 34 36 38 41 42 34 30 29 28 19 21 29 34 38 35 38 30 30 30 28 35 36 30 31 34 39 43 46 44 42 45 52 60 58 57 57
27 29 25 24 24 25 30 32 36 39 37 29 26 25 25 26 26 27 29 31 39 42 39 40 41 42 41 44 42 37 34 35 37 37 39 46 49 48 46 51 58 54 53
28 24 22 21 21 26 27 30 33 35 31 27 27 25 25 21 25 28 31 32 33 35 46 49 50 42 41 40 39 36 35 37 40 45 44 41 45 44 45 46 45 44 50
28 25 22 21 23 26 27 30 28 31 27 30 27 23 25 24 26 28 30 32 33 32 33 39 38 37 41 35 34 34 37 37 43 48 47 47 45 40 40 44 41 46 54
28 22 20 22 26 28 28 29 28 30 34 33 29 27 26 23 23 26 28 31 30 32 35 41 41 42 38 33 34 31 32 32 39 37 33 39 43 45 46 37 38 33 26
20 20 21 25 30 29 30 31 29 30 31 27 24 23 23 24 24 26 26 29 31 28 25 32 33 31 27 23 26 28 25 24 26 26 30 36 37 37 35 38 40 35 30
28 24 24 26 30 28 27 30 32 27 30 24 18 19 16 16 16 22 22 22 25 26 27 27 21 18 18 21 21 18 22 25 22 23 24 28 33 36 37 32 30 31 25
25 29 25 27 28 26 26 27 26 24 24 21 15 14 12 11 12 15 13 18 18 15 9 11 14 16 16 12 13 15 17 15 12 17 20 19 21 25 28 26 26 19 17
20 23 26 27 27 26 25 27 25 21 21 18 6 8 11 7 8 8 10 12 13 14 16 11 8 8 7 7 8 10 12 12 12 13 14 14 16 17 16 15 15 14 12
19 23 24 28 25 24 25 25 18 17 20 11 7 5 5 7 8 8 8 7 9 15 21 21 21 22 19 19 17 18 16 17 15 17 15 18 19 19 17 16 18 18 20
17 19 22 25 27 24 22 22 20 20 17 7 2 3 3 5 8 13 15 17 21 28 29 26 26 27 26 25 24 22 16 15 13 16 16 14 16 16 15 14 14 14 14
18 17 20 24 26 26 21 23 19 12 11 9 2 2 12 14 17 19 18 20 20 26 24 22 22 22 21 20 19 18 17 14 14 8 14 13 13 15 9 13 14 13 12
Wind_Direction_500mb
230 239 238 238 248 262 265 271 273 274 273 269 269 266 261 254 253 253 250 252 258 260 269 277 281 284 275 271 266 260 256 255 254 251 239 232 248 271 277 283 290 288 255
245 251 252 255 259 262 265 270 270 272 274 275 273 268 265 264 254 252 255 256 257 258 257 259 265 271 270 267 268 265 260 249 250 249 243 240 254 265 270 275 283 279 251
231 241 251 257 263 267 269 271 272 274 274 273 269 266 267 265 263 258 251 250 255 260 263 263 267 268 274 265 259 260 263 259 251 248 248 250 257 262 266 269 276 276 251
243 249 253 256 260 264 268 271 271 272 272 273 273 270 267 264 262 262 261 257 255 254 257 262 265 270 267 269 271 261 257 259 257 253 253 254 259 262 263 265 267 271 253
260 266 268 270 273 279 278 275 274 273 275 280 281 281 278 274 268 262 260 258 260 255 255 259 262 266 268 260 258 264 258 254 259 255 257 258 260 262 262 264 264 266 259
274 283 284 282 278 274 276 278 281 284 290 290 289 287 287 283 277 270 263 257 255 257 259 264 266 265 264 269 264 261 260 262 257 260 258 259 260 261 262 261 261 261 256
295 282 285 287 290 291 291 291 293 294 295 297 302 299 302 286 271 265 271 264 256 258 264 268 277 273 267 266 266 269 263 257 258 262 261 262 262 262 259 262 260 259 262
317 321 315 309 302 298 297 299 299 298 302 305 311 323 325 302 239 243 269 301 266 246 254 267 289 272 270 268 274 281 280 271 263 261 263 263 265 261 262 261 256 257 267
313 317 320 320 318 312 305 302 302 305 301 293 297 304 306 290 302 272 239 279 268 238 250 258 310 313 276 274 281 291 283 280 273 265 267 265 267 269 262 258 247 239 261
308 314 318 318 314 313 316 313 311 307 304 300 288 266 268 278 302 303 271 269 283 283 277 276 286 289 279 276 281 281 287 289 288 281 272 267 269 269 271 265 260 265 256
308 311 311 310 307 306 306 305 309 310 308 302 295 289 279 257 258 276 291 298 294 288 291 288 289 286 283 279 271 270 279 285 284 286 289 286 278 279 279 272 274 272 269
303 299 298 295 294 297 300 306 309 308 305 301 293 290 287 288 277 277 282 285 295 297 301 301 301 297 282 277 273 271 274 278 282 284 285 292 286 283 282 274 273 272 270
295 298 297 291 288 291 295 303 306 306 304 303 298 289 291 282 274 270 272 281 285 287 290 294 309 307 296 295 280 275 277 281 283 285 288 293 297 290 288 284 279 274 274
309 308 304 295 293 296 301 307 307 304 298 295 292 285 288 294 293 283 271 278 282 281 287 296 299 302 297 300 303 297 288 284 281 283 284 285 288 293 292 288 288 285 284
315 313 306 297 297 302 306 310 308 305 299 295 285 281 284 294 288 279 270 272 276 283 296 290 299 300 303 304 306 298 301 301 302 294 293 295 298 295 297 291 289 287 284
316 312 301 297 303 306 309 310 310 309 302 305 291 281 282 287 287 269 271 279 274 268 278 282 284 291 293 294 294 290 293 301 314 312 307 299 292 295 299 294 291 297 289
321 313 302 302 307 310 309 311 316 315 312 307 299 280 277 284 294 280 270 272 275 271 270 283 287 295 297 295 296 289 292 297 299 305 303 306 307 307 298 298 282 285 286
320 316 309 307 310 309 304 305 311 317 311 305 300 289 292 292 289 285 273 272 265 270 274 281 288 289 291 302 302 298 292 291 298 299 303 301 303 304 313 302 302 284 281
316 314 313 312 314 313 309 305 314 315 307 302 297 289 291 290 294 288 281 280 280 276 274 272 285 281 289 293 305 306 304 293 310 302 303 307 300 296 305 311 307 295 274
316 311 310 309 314 317 318 315 320 311 306 299 295 291 286 284 290 286 283 280 281 279 274 281 282 280 288 295 306 304 297 305 302 309 314 301 293 296 302 303 302 284 277
330 311 309 316 323 320 312 322 314 309 313 301 293 297 290 295 297 295 300 299 296 278 270 281 277 277 281 294 299 289 303 311 294 310 311 295 289 293 300 304 306 296 294
333 327 323 324 329 325 317 307 311 304 307 305 293 302 301 299 303 309 327 343 341 340 318 278 279 281 297 300 297 306 321 319 317 305 310 315 306 299 302 308 308 309 289
316 312 315 323 323 320 315 315 296 289 304 300 305 318 324 316 334 21 4 10 10 29 46 45 49 51 25 2 341 336 340 340 336 327 333 338 339 338 330 312 306 308 301
303 307 309 321 319 315 315 316 304 288 289 278 288 326 320 23 41 53 37 22 45 76 71 65 65 67 62 59 57 53 51 52 45 36 29 35 27 24 25 24 25 24 25
314 314 317 315 322 332 317 305 306 289 272 245 328 337 29 60 69 69 64 70 73 68 61 57 55 55 54 55 52 50 51 43 43 39 33 37 32 24 19 9 4 358 348
324 325 315 311 315 328 331 314 309 279 242 131 70 81 100 97 93 88 80 75 72 69 64 58 57 57 54 50 48 42 38 26 21 5 16 14 1 360 357 12 1 345 335
Wind_Speed_850mb
14 16 16 16 18 18 21 23 24 26 27 25 24 25 24 23 25 24 28 31 30 27 24 25 24 22 24 25 26 30 32 32 33 34 39 43 34 32 33 32 28 25 17
18 20 20 20 20 22 21 21 22 23 24 23 24 28 29 29 30 30 29 32 35 35 35 33 34 35 32 29 30 30 32 32 33 32 39 44 40 38 37 34 29 25 20
18 18 19 21 23 24 25 26 27 27 27 29 29 28 27 28 30 32 39 41 41 36 38 40 38 40 34 35 36 37 35 35 37 37 41 48 48 44 41 38 33 29 25
15 17 19 19 20 22 23 26 27 29 31 33 34 34 36 36 34 33 32 34 43 46 46 49 49 50 51 48 44 45 42 43 41 42 46 52 52 49 48 44 39 33 33
12 14 15 17 19 21 20 21 23 24 25 28 32 34 36 40 40 40 39 36 37 37 44 49 49 45 40 45 47 49 47 46 46 46 49 52 56 55 53 52 47 40 40
11 14 16 17 17 19 19 20 22 22 24 29 31 32 32 34 37 40 43 40 39 37 38 40 41 39 36 36 41 48 48 47 52 50 52 54 57 60 61 60 56 49 47
8 9 12 14 16 19 21 22 21 22 23 29 33 31 25 24 21 25 29 34 38 40 38 34 35 37 36 31 33 37 44 47 44 48 53 55 56 58 63 64 67 61 47
10 12 13 15 15 17 19 22 22 21 21 22 24 28 14 11 15 6 7 10 14 16 18 21 20 24 24 26 31 32 35 42 48 52 44 46 52 54 61 60 79 64 63
11 11 11 12 13 14 16 19 21 24 23 17 17 13 9 7 26 19 16 10 4 9 15 14 9 11 18 25 27 28 35 35 38 48 50 52 49 49 49 66 54 64 67
11 12 14 15 15 15 15 17 19 20 22 25 19 21 24 28 11 21 17 21 22 22 23 27 28 28 33 35 35 31 28 29 33 38 45 46 49 51 49 54 62 65 95
15 15 16 16 17 18 18 20 22 24 27 29 28 29 28 35 39 36 45 38 34 33 35 38 40 39 35 33 33 33 36 37 37 40 41 43 47 46 48 53 53 61 69
17 19 19 20 19 19 20 22 25 30 32 32 33 31 29 29 26 30 40 46 42 40 34 35 37 36 35 34 33 35 35 39 41 41 42 43 49 50 49 55 58 63 65
13 17 19 19 20 20 22 26 31 34 36 38 38 32 29 31 35 40 41 47 51 48 50 43 38 36 23 22 27 32 34 38 38 39 39 42 43 49 54 54 59 62 64
16 19 21 23 23 23 25 30 33 35 36 39 42 33 31 31 28 26 33 41 47 49 50 36 35 26 24 27 24 24 28 35 38 41 42 47 48 48 52 51 51 56 57
22 26 28 25 25 26 29 34 36 38 41 42 34 30 29 28 19 21 29 34 38 35 38 30 30 30 28 35 36 30 31 34 39 43 46 44 42 45 52 60 58 57 57
27 29 25 24 24 25 30 32 36 39 37 29 26 25 25 26 26 27 29 31 39 42 39 40 41 42 41 44 42 37 34 35 37 37 39 46 49 48 46 51 58 54 53
28 24 22 21 21 26 27 30 33 35 31 27 27 25 25 21 25 28 31 32 33 35 46 49 50 42 41 40 39 36 35 37 40 45 44 41 45 44 45 46 45 44 50
28 25 22 21 23 26 27 30 28 31 27 30 27 23 25 24 26 28 30 32 33 32 33 39 38 37 41 35 34 34 37 37 43 48 47 47 45 40 40 44 41 46 54
28 22 20 22 26 28 28 29 28 30 34 33 29 27 26 23 23 26 28 31 30 32 35 41 41 42 38 33 34 31 32 32 39 37 33 39 43 45 46 37 38 33 26
20 20 21 25 30 29 30 31 29 30 31 27 24 23 23 24 24 26 26 29 31 28 25 32 33 31 27 23 26 28 25 24 26 26 30 36 37 37 35 38 40 35 30
28 24 24 26 30 28 27 30 32 27 30 24 18 19 16 16 16 22 22 22 25 26 27 27 21 18 18 21 21 18 22 25 22 23 24 28 33 36 37 32 30 31 25
25 29 25 27 28 26 26 27 26 24 24 21 15 14 12 11 12 15 13 18 18 15 9 11 14 16 16 12 13 15 17 15 12 17 20 19 21 25 28 26 26 19 17
20 23 26 27 27 26 25 27 25 21 21 18 6 8 11 7 8 8 10 12 13 14 16 11 8 8 7 7 8 10 12 12 12 13 14 14 16 17 16 15 15 14 12
19 23 24 28 25 24 25 25 18 17 20 11 7 5 5 7 8 8 8 7 9 15 21 21 21 22 19 19 17 18 16 17 15 17 15 18 19 19 17 16 18 18 20
17 19 22 25 27 24 22 22 20 20 17 7 2 3 3 5 8 13 15 17 21 28 29 26 26 27 26 25 24 22 16 15 13 16 16 14 16 16 15 14 14 14 14
18 17 20 24 26 26 21 23 19 12 11 9 2 2 12 14 17 19 18 20 20 26 24 22 22 22 21 20 19 18 17 14 14 8 14 13 13 15 9 13 14 13 12
Wind_Direction_850mb
230 239 238 238 248 262 265 271 273 274 273 269 269 266 261 254 253 253 250 252 258 260 269 277 281 284 275 271 266 260 256 255 254 251 239 232 248 271 277 283 290 288 255
245 251 252 255 259 262 265 270 270 272 274 275 273 268 265 264 254 252 255 256 257 258 257 259 265 271 270 267 268 265 260 249 250 249 243 240 254 265 270 275 283 279 251
231 241 251 257 263 267 269 271 272 274 274 273 269 266 267 265 263 258 251 250 255 260 263 263 267 268 274 265 259 260 263 259 251 248 248 250 257 262 266 269 276 276 251
243 249 253 256 260 264 268 271 271 272 272 273 273 270 267 264 262 262 261 257 255 254 257 262 265 270 267 269 271 261 257 259 257 253 253 254 259 262 263 265 267 271 253
260 266 268 270 273 279 278 275 274 273 275 280 281 281 278 274 268 262 260 258 260 255 255 259 262 266 268 260 258 264 258 254 259 255 257 258 260 262 262 264 264 266 259
274 283 284 282 278 274 276 278 281 284 290 290 289 287 287 283 277 270 263 257 255 257 259 264 266 265 264 269 264 261 260 262 257 260 258 259 260 261 262 261 261 261 256
295 282 285 287 290 291 291 291 293 294 295 297 302 299 302 286 271 265 271 264 256 258 264 268 277 273 267 266 266 269 263 257 258 262 261 262 262 262 259 262 260 259 262
317 321 315 309 302 298 297 299 299 298 302 305 311 323 325 302 239 243 269 301 266 246 254 267 289 272 270 268 274 281 280 271 263 261 263 263 265 261 262 261 256 257 267
313 317 320 320 318 312 305 302 302 305 301 293 297 304 306 290 302 272 239 279 268 238 250 258 310 313 276 274 281 291 283 280 273 265 267 265 267 269 262 258 247 239 261
308 314 318 318 314 313 316 313 311 307 304 300 288 266 268 278 302 303 271 269 283 283 277 276 286 289 279 276 281 281 287 289 288 281 272 267 269 269 271 265 260 265 256
308 311 311 310 307 306 306 305 309 310 308 302 295 289 279 257 258 276 291 298 294 288 291 288 289 286 283 279 271 270 279 285 284 286 289 286 278 279 279 272 274 272 269
303 299 298 295 294 297 300 306 309 308 305 301 293 290 287 288 277 277 282 285 295 297 301 301 301 297 282 277 273 271 274 278 282 284 285 292 286 283 282 274 273 272 270
295 298 297 291 288 291 295 303 306 306 304 303 298 289 291 282 274 270 272 281 285 287 290 294 309 307 296 295 280 275 277 281 283 285 288 293 297 290 288 284 279 274 274
309 308 304 295 293 296 301 307 307 304 298 295 292 285 288 294 293 283 271 278 282 281 287 296 299 302 297 300 303 297 288 284 281 283 284 285 288 293 292 288 288 285 284
315 313 306 297 297 302 306 310 308 305 299 295 285 281 284 294 288 279 270 272 276 283 296 290 299 300 303 304 306 298 301 301 302 294 293 295 298 295 297 291 289 287 284
316 312 301 297 303 306 309 310 310 309 302 305 291 281 282 287 287 269 271 279 274 268 278 282 284 291 293 294 294 290 293 301 314 312 307 299 292 295 299 294 291 297 289
321 313 302 302 307 310 309 311 316 315 312 307 299 280 277 284 294 280 270 272 275 271 270 283 287 295 297 295 296 289 292 297 299 305 303 306 307 307 298 298 282 285 286
320 316 309 307 310 309 304 305 311 317 311 305 300 289 292 292 289 285 273 272 265 270 274 281 288 289 291 302 302 298 292 291 298 299 303 301 303 304 313 302 302 284 281
316 314 313 312 314 313 309 305 314 315 307 302 297 289 291 290 294 288 281 280 280 276 274 272 285 281 289 293 305 306 304 293 310 302 303 307 300 296 305 311 307 295 274
316 311 310 309 314 317 318 315 320 311 306 299 295 291 286 284 290 286 283 280 281 279 274 281 282 280 288 295 306 304 297 305 302 309 314 301 293 296 302 303 302 284 277
330 311 309 316 323 320 312 322 314 309 313 301 293 297 290 295 297 295 300 299 296 278 270 281 277 277 281 294 299 289 303 311 294 310 311 295 289 293 300 304 306 296 294
333 327 323 324 329 325 317 307 311 304 307 305 293 302 301 299 303 309 327 343 341 340 318 278 279 281 297 300 297 306 321 319 317 305 310 315 306 299 302 308 308 309 289
316 312 315 323 323 320 315 315 296 289 304 300 305 318 324 316 334 21 4 10 10 29 46 45 49 51 25 2 341 336 340 340 336 327 333 338 339 338 330 312 306 308 301
303 307 309 321 319 315 315 316 304 288 289 278 288 326 320 23 41 53 37 22 45 76 71 65 65 67 62 59 57 53 51 52 45 36 29 35 27 24 25 24 25 24 25
314 314 317 315 322 332 317 305 306 289 272 245 328 337 29 60 69 69 64 70 73 68 61 57 55 55 54 55 52 50 51 43 43 39 33 37 32 24 19 9 4 358 348
324 325 315 311 315 328 331 314 309 279 242 131 70 81 100 97 93 88 80 75 72 69 64 58 57 57 54 50 48 42 38 26 21 5 16 14 1 360 357 12 1 345 335